This is the latest recevied weather packets stored in our database for station/object 4S6DRJ-13. If no packets are shown the sender has not sent any weather packets the latest 10 day(s).
| Time | Temp. | Humidity | Pressure | Rain* | Wind** | Luminosity | Snow |
|---|---|---|---|---|---|---|---|
| 1787598246 | 26.67° C | 87% | 1010.8 hPa | 0 mm | 0.89 m/s, 181° | 0 W/m² | - |
| 1787598185 | 26.67° C | 88% | 1010.9 hPa | 0 mm | 0 m/s | 0 W/m² | - |
| 1787598125 | 26.67° C | 88% | 1010.9 hPa | 0 mm | 0.45 m/s, 199° | 0 W/m² | - |
| 1787598064 | 26.67° C | 87% | 1010.9 hPa | 0 mm | 0 m/s | 0 W/m² | - |
| 1787598003 | 26.67° C | 88% | 1011 hPa | 0 mm | 0.89 m/s, 217° | 0 W/m² | - |
| 1787597941 | 26.67° C | 88% | 1010.7 hPa | 0 mm | 0.89 m/s, 164° | 0 W/m² | - |
| 1787597880 | 26.67° C | 88% | 1010.9 hPa | 0 mm | 0.45 m/s, 131° | 0 W/m² | - |
| 1787597820 | 26.67° C | 87% | 1010.8 hPa | 0 mm | 0.45 m/s, 219° | 0 W/m² | - |
| 1787597758 | 26.67° C | 87% | 1010.9 hPa | 0 mm | 0 m/s | 0 W/m² | - |
| 1787597698 | 26.67° C | 87% | 1010.9 hPa | 0 mm | 1.34 m/s, 191° | 0 W/m² | - |
| 1787597636 | 26.67° C | 87% | 1011.1 hPa | 0 mm | 0.89 m/s, 149° | 0 W/m² | - |
| 1787597575 | 26.67° C | 87% | 1011 hPa | 0 mm | 0.89 m/s, 184° | 0 W/m² | - |
| 1787597514 | 26.67° C | 87% | 1011.1 hPa | 0 mm | 1.79 m/s, 187° | 0 W/m² | - |
| 1787597453 | 26.67° C | 87% | 1011.1 hPa | 0 mm | 1.34 m/s, 177° | 0 W/m² | - |
| 1787597392 | 26.67° C | 87% | 1011.1 hPa | 0 mm | 1.79 m/s, 175° | 0 W/m² | - |
| 1787597331 | 26.67° C | 87% | 1010.8 hPa | 0 mm | 0.89 m/s, 141° | 0 W/m² | - |
| 1787597270 | 26.67° C | 87% | 1011.1 hPa | 0 mm | 1.79 m/s, 205° | 0 W/m² | - |
| 1787597209 | 26.67° C | 87% | 1011.3 hPa | 0 mm | 0.45 m/s, 175° | 0 W/m² | - |
| 1787597148 | 26.67° C | 87% | 1011.1 hPa | 0 mm | 0.89 m/s, 245° | 0 W/m² | - |
| 1787597087 | 26.67° C | 87% | 1011 hPa | 0 mm | 0.45 m/s, 234° | 0 W/m² | - |
| 1787597028 | 26.67° C | 87% | 1011.2 hPa | 0 mm | 0.89 m/s, 207° | 0 W/m² | - |
| 1787596965 | 26.67° C | 87% | 1011 hPa | 0 mm | 0.89 m/s, 143° | 0 W/m² | - |
| 1787596904 | 26.67° C | 86% | 1011.2 hPa | 0 mm | 1.34 m/s, 241° | 0 W/m² | - |
| 1787596843 | 26.67° C | 86% | 1011.2 hPa | 0 mm | 1.34 m/s, 168° | 0 W/m² | - |
| 1787596782 | 26.67° C | 86% | 1011.3 hPa | 0 mm | 0.45 m/s, 215° | 0 W/m² | - |
* Rain latest hour (hover to see other rain measurements)
** Current wind speed in m/s (hover to see current wind gust speed)